GW1112 Weather Reports


time (UTC)temp
C
wind
direction
speed
KPH
gust
KPH
rain 1hr
cm
rain 24hr
cm
rain mn
cm
humidity
%
barometer
mb
20260506082220 15 235 0.0 0.0 0.00 0.00 0.00 83 1007.0
20260506081718 15 235 0.0 0.0 0.00 0.00 0.00 82 1007.1
20260506081215 15 234 0.0 0.0 0.00 0.00 0.00 82 1007.0
20260506080713 16 234 0.0 0.0 0.00 0.00 0.00 81 1007.3
20260506080209 16 237 0.0 0.0 0.00 0.00 0.00 80 1007.2
20260506073153 13 222 0.0 0.0 0.00 0.00 0.00 95 1007.4
20260506072650 13 243 0.0 0.0 0.00 0.00 0.00 94 1007.3
20260506072148 13 240 0.0 0.0 0.00 0.00 0.00 94 1007.2
20260506071645 14 243 0.0 0.0 0.00 0.00 0.00 91 1007.1
20260506071143 13 238 0.0 0.0 0.00 0.00 0.00 89 1007.1
20260506070639 14 240 0.0 0.0 0.00 0.00 0.00 91 1006.9
20260506070136 14 239 0.0 0.0 0.00 0.00 0.00 91 1006.9
20260506062114 12 257 0.0 0.0 0.00 0.00 0.00 99 1007.4
20260506061609 11 245 0.0 1.6 0.00 0.00 0.00 99 1007.7
20260506061107 11 251 0.0 0.0 0.00 0.00 0.00 99 1008.0
20260506060606 11 243 0.0 0.0 0.00 0.00 0.00 99 1007.8
20260506051034 11 241 0.0 0.0 0.00 0.00 0.00 99 1008.4
20260506050532 11 241 0.0 0.0 0.00 0.00 0.00 99 1008.4
20260506045023 11 242 0.0 0.0 0.00 0.00 0.00 99 1008.8
20260506044521 11 233 0.0 0.0 0.00 0.00 0.00 99 1008.9
20260506044017 11 232 0.0 0.0 0.00 0.00 0.00 99 1008.9
20260506043514 11 237 0.0 0.0 0.00 0.00 0.00 99 1008.8
20260506043013 11 237 0.0 0.0 0.00 0.00 0.00 99 1008.8
20260506042512 10 237 0.0 0.0 0.00 0.00 0.00 99 1008.7
20260506042009 11 227 0.0 0.0 0.00 0.00 0.00 99 1008.6
20260506041508 11 236 0.0 0.0 0.00 0.00 0.00 99 1008.6
20260506041004 10 227 0.0 0.0 0.00 0.00 0.00 99 1008.7
20260506040502 10 245 0.0 0.0 0.00 0.00 0.00 99 1008.7
20260506035957 10 245 0.0 0.0 0.00 0.05 0.05 99 1008.9
20260506035455 10 245 0.0 0.0 0.00 0.05 0.05 99 1008.6
20260506034951 10 245 0.0 0.0 0.00 0.05 0.05 99 1008.7
20260506034449 10 245 0.0 0.0 0.00 0.05 0.05 99 1008.6
20260506033945 10 245 0.0 0.0 0.00 0.05 0.05 99 1008.5
20260506033443 11 233 0.0 0.0 0.00 0.05 0.05 99 1008.5
20260506032939 10 246 0.0 0.0 0.00 0.05 0.05 99 1008.4
20260506032437 10 248 0.0 0.0 0.00 0.05 0.05 99 1008.6
20260506031933 10 256 0.0 0.0 0.00 0.05 0.05 99 1008.5
20260506031431 11 237 0.0 0.0 0.00 0.05 0.05 99 1008.8
20260506030928 11 245 0.0 0.0 0.00 0.05 0.05 99 1008.6
20260506030426 11 252 0.0 0.0 0.00 0.05 0.05 99 1008.6
20260506025923 11 255 0.0 0.0 0.00 0.05 0.05 99 1008.5
20260506025420 10 238 0.0 0.0 0.00 0.05 0.05 99 1008.8
20260506024916 10 233 0.0 0.0 0.00 0.05 0.05 99 1008.8
20260506024413 11 232 0.0 0.0 0.00 0.05 0.05 99 1008.8
20260506023909 11 228 0.0 0.0 0.00 0.05 0.05 99 1008.8
20260506023406 11 228 0.0 0.0 0.00 0.05 0.05 99 1008.8
20260506022903 11 232 0.0 0.0 0.00 0.05 0.05 99 1008.7
20260506022400 11 230 0.0 0.0 0.00 0.05 0.05 99 1008.8
20260506021858 11 230 0.0 0.0 0.00 0.05 0.05 99 1008.8
20260506021355 11 230 0.0 0.0 0.00 0.05 0.05 99 1008.7
20260506020852 12 230 0.0 0.0 0.00 0.05 0.05 99 1008.7
20260506020350 12 230 0.0 0.0 0.00 0.05 0.05 99 1008.7
20260506015847 12 230 0.0 0.0 0.00 0.05 0.05 99 1008.9
20260506015345 12 229 0.0 0.0 0.00 0.05 0.05 99 1008.8
20260506014841 12 228 0.0 0.0 0.00 0.05 0.05 99 1008.6
20260506014338 12 228 0.0 0.0 0.00 0.05 0.05 99 1008.8
20260506013834 12 249 0.0 0.0 0.00 0.05 0.05 99 1008.5
20260506013332 12 250 0.0 0.0 0.00 0.05 0.05 99 1008.5
20260506012828 12 246 0.0 0.0 0.00 0.05 0.05 99 1008.5
20260506012326 13 246 0.0 0.0 0.00 0.05 0.05 99 1008.6
20260506011823 13 246 0.0 0.0 0.00 0.05 0.05 99 1008.5
20260506011319 13 246 0.0 0.0 0.00 0.05 0.05 99 1008.4
20260506010817 13 246 0.0 0.0 0.00 0.05 0.05 99 1008.4
20260506010314 14 245 0.0 0.0 0.00 0.05 0.05 99 1008.3
20260506005811 14 245 0.0 0.0 0.00 0.05 0.05 99 1008.4
20260506005308 14 246 0.0 0.0 0.00 0.05 0.05 99 1008.5
20260506004805 15 246 0.0 0.0 0.00 0.05 0.05 99 1008.2
20260506004302 15 246 0.0 0.0 0.00 0.05 0.05 98 1008.3
20260506003758 15 246 0.0 0.0 0.00 0.05 0.05 97 1008.2
20260506003254 15 245 0.0 0.0 0.00 0.05 0.05 97 1008.1
20260506002751 15 246 0.0 0.0 0.00 0.05 0.05 96 1008.0
20260506002247 16 245 0.0 0.0 0.00 0.05 0.05 96 1008.2
20260506001743 16 246 0.0 0.0 0.00 0.05 0.05 96 1008.1
20260506001240 16 245 0.0 0.0 0.00 0.05 0.05 95 1007.9
20260506000737 16 245 0.0 0.0 0.00 0.05 0.05 95 1007.9
20260506000235 16 245 0.0 0.0 0.00 0.05 0.05 94 1007.8
20260505235731 17 245 0.0 0.0 0.00 0.05 0.05 94 1007.8
20260505235229 17 245 0.0 0.0 0.00 0.05 0.05 93 1007.7
20260505234726 17 245 0.0 0.0 0.00 0.05 0.05 92 1007.8
20260505234223 17 245 0.0 0.0 0.00 0.05 0.05 92 1007.7
20260505233719 18 245 0.0 0.0 0.00 0.05 0.05 91 1007.7
20260505233218 18 245 0.0 0.0 0.00 0.05 0.05 90 1007.7
20260505232715 18 245 0.0 0.0 0.00 0.05 0.05 85 1007.4
20260505232212 18 245 0.0 0.0 0.00 0.05 0.05 82 1007.7
20260505231709 18 246 0.0 0.0 0.00 0.05 0.05 82 1007.9
20260505231208 18 246 0.0 0.0 0.00 0.05 0.05 84 1007.7
20260505230706 18 246 0.0 0.0 0.00 0.05 0.05 86 1007.8
20260505230202 18 246 0.0 0.0 0.00 0.05 0.05 85 1007.7
20260505225658 18 246 0.0 0.0 0.00 0.05 0.05 84 1007.7
20260505225155 18 247 0.0 0.0 0.00 0.05 0.05 84 1007.6
20260505224650 18 245 0.0 0.0 0.00 0.05 0.05 86 1007.6
20260505224149 18 244 0.0 0.0 0.00 0.05 0.05 86 1007.6
20260505223646 18 246 0.0 0.0 0.00 0.05 0.05 86 1007.7
20260505223142 18 257 1.6 3.2 0.00 0.05 0.05 86 1007.7
20260505222638 19 258 3.2 3.2 0.00 0.05 0.05 84 1007.7
20260505222134 19 254 1.6 3.2 0.00 0.05 0.05 84 1007.7
20260505221631 19 247 0.0 0.0 0.00 0.05 0.05 86 1007.8
20260505221128 18 257 3.2 3.2 0.00 0.05 0.05 85 1007.9
20260505220626 18 246 0.0 0.0 0.00 0.05 0.05 89 1007.6
20260505220123 18 246 1.6 1.6 0.00 0.05 0.05 88 1007.4
20260505215621 17 250 0.0 0.0 0.18 0.05 0.05 92 1007.7
20260505215119 17 239 0.0 0.0 0.18 0.05 0.05 91 1008.1
20260505214616 17 245 1.6 1.6 0.00 0.03 0.03 90 1008.1
20260505214113 17 237 0.0 0.0 0.00 0.03 0.03 90 1008.5
20260505213611 17 264 3.2 3.2 0.00 0.03 0.03 89 1008.2
20260505213107 18 239 0.0 0.0 0.00 0.03 0.03 91 1008.0
20260505212603 18 228 0.0 0.0 0.00 0.03 0.03 90 1007.9
20260505212102 18 235 0.0 0.0 0.00 0.03 0.03 90 1007.9
20260505211558 18 228 0.0 0.0 0.13 0.03 0.03 88 1007.9
20260505211055 19 229 3.2 4.8 0.13 0.03 0.03 83 1008.3
20260505210551 21 259 8.0 11.3 0.00 0.00 0.00 71 1008.1
20260505210049 22 274 12.9 22.5 0.00 0.00 0.00 55 1007.8
20260505205546 23 281 8.0 11.3 0.00 0.00 0.00 51 1007.3
20260505205044 23 282 8.0 11.3 0.00 0.00 0.00 49 1007.1
20260505204541 24 254 8.0 9.7 0.00 0.00 0.00 48 1006.9
20260505204038 24 282 6.4 6.4 0.00 0.00 0.00 48 1006.7
20260505203534 24 264 4.8 4.8 0.00 0.00 0.00 48 1006.6
20260505203032 25 256 4.8 4.8 0.00 0.00 0.00 49 1006.7
20260505202528 25 279 4.8 4.8 0.00 0.00 0.00 49 1006.9
20260505202024 25 235 6.4 6.4 0.00 0.00 0.00 49 1007.0
20260505201521 25 247 0.0 1.6 0.00 0.00 0.00 52 1007.0
20260505201018 25 257 8.0 11.3 0.00 0.00 0.00 49 1007.0
20260505200516 25 228 0.0 0.0 0.00 0.00 0.00 53 1007.2
20260505200013 25 281 3.2 6.4 0.00 0.00 0.00 49 1007.2
20260505195509 24 275 8.0 9.7 0.00 0.00 0.00 48 1007.2
20260505195007 23 229 6.4 11.3 0.00 0.00 0.00 48 1007.3
20260505194504 23 238 3.2 4.8 0.00 0.00 0.00 48 1007.4
20260505194004 24 233 0.0 0.0 0.00 0.00 0.00 47 1007.1
20260505193502 24 237 3.2 6.4 0.00 0.00 0.00 47 1007.2
20260505192959 24 229 1.6 1.6 0.00 0.00 0.00 48 1007.3
20260505192457 24 251 1.6 3.2 0.00 0.00 0.00 48 1007.2
20260505191954 25 240 3.2 4.8 0.00 0.00 0.00 46 1007.0
20260505191453 25 246 3.2 3.2 0.00 0.00 0.00 47 1007.1
20260505190949 25 243 1.6 3.2 0.00 0.00 0.00 47 1007.2
20260505190444 25 232 0.0 1.6 0.00 0.00 0.00 46 1007.1
20260505185940 25 289 9.7 11.3 0.00 0.00 0.00 45 1007.1
20260505185438 25 237 8.0 11.3 0.00 0.00 0.00 46 1007.3
20260505184934 25 263 3.2 3.2 0.00 0.00 0.00 45 1007.3
20260505184431 25 210 1.6 3.2 0.00 0.00 0.00 46 1007.2
20260505183927 25 209 4.8 11.3 0.00 0.00 0.00 45 1007.2
20260505183424 25 256 4.8 6.4 0.00 0.00 0.00 45 1007.0
20260505182921 26 183 1.6 3.2 0.00 0.00 0.00 45 1007.0
20260505182418 26 196 3.2 3.2 0.00 0.00 0.00 45 1007.4
20260505181914 25 267 9.7 11.3 0.00 0.00 0.00 43 1007.3
20260505181412 25 224 1.6 1.6 0.00 0.00 0.00 46 1007.6
20260505180908 26 239 4.8 11.3 0.00 0.00 0.00 43 1007.6
20260505180405 25 209 4.8 4.8 0.00 0.00 0.00 48 1007.6
20260505175901 25 237 11.3 22.5 0.00 0.00 0.00 44 1007.4
20260505175358 25 311 6.4 6.4 0.00 0.00 0.00 45 1007.9
20260505174854 25 214 1.6 3.2 0.00 0.00 0.00 47 1007.9
20260505174352 25 282 4.8 6.4 0.00 0.00 0.00 44 1008.0
20260505173848 26 260 14.5 17.7 0.00 0.00 0.00 42 1008.0
20260505173344 27 288 9.7 12.9 0.00 0.00 0.00 45 1007.9
20260505172841 27 237 1.6 1.6 0.00 0.00 0.00 45 1007.9
20260505172339 27 256 4.8 6.4 0.00 0.00 0.00 47 1007.8
20260505171839 27 246 3.2 3.2 0.00 0.00 0.00 46 1007.8
20260505171336 27 236 3.2 3.2 0.00 0.00 0.00 47 1007.9
20260505170832 26 247 3.2 3.2 0.00 0.00 0.00 49 1008.0
20260505170329 26 232 1.6 3.2 0.00 0.00 0.00 51 1007.9
20260505165825 25 237 4.8 6.4 0.00 0.00 0.00 52 1008.1
20260505165320 26 272 9.7 14.5 0.00 0.00 0.00 50 1008.3
20260505164816 26 245 3.2 3.2 0.00 0.00 0.00 51 1008.2
20260505164313 25 252 8.0 9.7 0.00 0.00 0.00 49 1008.0
20260505163812 24 250 1.6 3.2 0.00 0.00 0.00 52 1008.1
20260505163310 23 239 6.4 9.7 0.00 0.00 0.00 53 1008.4
20260505162808 23 259 12.9 16.1 0.00 0.00 0.00 52 1008.4
20260505162306 24 275 9.7 11.3 0.00 0.00 0.00 53 1008.5
20260505161802 23 267 6.4 9.7 0.00 0.00 0.00 54 1008.4
20260505161259 23 249 11.3 16.1 0.00 0.00 0.00 53 1008.6
20260505160756 24 277 12.9 17.7 0.00 0.00 0.00 53 1008.6
20260505160254 25 260 3.2 11.3 0.00 0.00 0.00 54 1008.7
20260505153232 23 263 9.7 12.9 0.00 0.00 0.00 57 1009.3
20260505152729 22 229 6.4 6.4 0.00 0.00 0.00 58 1009.2
20260505152226 23 256 6.4 9.7 0.00 0.00 0.00 58 1008.9
20260505151720 23 231 6.4 9.7 0.00 0.00 0.00 57 1008.9
20260505151218 22 238 1.6 1.6 0.00 0.00 0.00 61 1009.1
20260505150714 23 232 1.6 1.6 0.00 0.00 0.00 58 1008.9
20260505150212 23 246 1.6 1.6 0.00 0.00 0.00 60 1008.9
20260505140645 24 238 4.8 6.4 0.00 0.00 0.00 58 1008.8
20260505140142 24 231 1.6 3.2 0.00 0.00 0.00 59 1009.0
20260505130106 22 233 1.6 1.6 0.00 0.00 0.00 63 1009.1
20260505124555 21 226 3.2 4.8 0.00 0.00 0.00 67 1009.0
20260505124051 20 235 4.8 6.4 0.00 0.00 0.00 65 1009.2
20260505123548 20 226 0.0 1.6 0.00 0.00 0.00 68 1009.4
20260505123044 19 248 4.8 6.4 0.00 0.00 0.00 69 1009.0
20260505122541 18 264 3.2 4.8 0.00 0.00 0.00 72 1009.2
20260505122038 17 241 3.2 4.8 0.00 0.00 0.00 74 1009.2
20260505121534 17 232 1.6 1.6 0.00 0.00 0.00 75 1009.3
20260505121031 17 231 1.6 3.2 0.00 0.00 0.00 75 1009.6
20260505120528 16 252 1.6 1.6 0.00 0.00 0.00 77 1009.5
20260505120023 16 255 1.6 3.2 0.00 0.00 0.00 77 1009.4
20260505115518 16 243 0.0 0.0 0.00 0.00 0.00 78 1009.5
20260505115016 16 260 1.6 3.2 0.00 0.00 0.00 78 1009.4
20260505114513 16 246 1.6 1.6 0.00 0.00 0.00 77 1009.4
20260505114009 16 265 3.2 4.8 0.00 0.00 0.00 78 1009.5
20260505113506 16 242 0.0 0.0 0.00 0.00 0.00 80 1009.5
20260505113001 16 243 0.0 0.0 0.00 0.00 0.00 80 1009.4
20260505112458 16 224 0.0 0.0 0.00 0.00 0.00 81 1009.6
20260505111955 16 240 1.6 1.6 0.00 0.00 0.00 78 1009.5
20260505111449 16 230 4.8 6.4 0.00 0.00 0.00 77 1009.6
20260505110946 16 225 3.2 4.8 0.00 0.00 0.00 78 1009.5
20260505110443 16 242 0.0 1.6 0.00 0.00 0.00 78 1009.1
20260505101914 13 248 0.0 0.0 0.00 0.00 0.00 82 1008.5
20260505101409 12 248 1.6 1.6 0.00 0.00 0.00 84 1008.7
20260505100905 12 245 0.0 1.6 0.00 0.00 0.00 87 1008.6
20260505100402 11 251 0.0 0.0 0.00 0.00 0.00 88 1008.6
20260505095857 11 234 0.0 0.0 0.00 0.00 0.00 88 1008.9
20260505095355 11 227 0.0 0.0 0.00 0.00 0.00 88 1008.7
20260505094851 12 227 0.0 0.0 0.00 0.00 0.00 86 1008.6
20260505094348 12 239 0.0 0.0 0.00 0.00 0.00 84 1008.7
20260505093844 12 248 0.0 0.0 0.00 0.00 0.00 86 1008.6
20260505093341 11 245 0.0 0.0 0.00 0.00 0.00 88 1008.6
20260505092839 11 246 0.0 0.0 0.00 0.00 0.00 89 1008.5
20260505092337 12 239 0.0 0.0 0.00 0.00 0.00 87 1008.7
20260505091833 12 229 0.0 0.0 0.00 0.00 0.00 87 1008.7
20260505091332 12 244 0.0 0.0 0.00 0.00 0.00 84 1008.5
20260505090829 12 244 0.0 0.0 0.00 0.00 0.00 85 1008.3
20260505090328 12 243 0.0 0.0 0.00 0.00 0.00 85 1008.1
20260505085824 12 241 0.0 0.0 0.00 0.00 0.00 87 1008.3
20260505085322 11 241 0.0 0.0 0.00 0.00 0.00 88 1008.2
20260505084820 12 240 0.0 0.0 0.00 0.00 0.00 87 1008.2
20260505084318 12 249 0.0 0.0 0.00 0.00 0.00 87 1008.3
20260505083814 11 251 0.0 0.0 0.00 0.00 0.00 88 1008.3
20260505083311 11 252 0.0 0.0 0.00 0.00 0.00 88 1008.2
20260505082807 11 239 0.0 0.0 0.00 0.00 0.00 89 1008.2